[[{"header":{"parameterUnit":"m.s-1","parameterCategory":1,"la1":30.2991,"la2":30.254,"lo1":-89.0895,"lo2":-89.0444,"dy":0.0017,"dx":0.0017,"nx":28,"ny":28,"refTime":"2024-06-11T21:00:00:Z","depth":0,"parameterNumber":2,"parameterNumberName":"U-component_of_WINDS"},"data":[0,0,0,0,0,0,0,0,0,0,0,0,0,0,0,0,0,0,0,0,0,0,0,0,0,0,0,0,0,0,0,0,0,0,0,0,0,0,0,0,0,0,0,0,0,0,0,0,0,0,0,0,0,0,0,0,0,0,-1.1459,-1.1459,0,-1.1405,-1.1404,-1.1403,-1.1324,-1.1322,-1.1321,-1.132,-1.1265,-1.1265,-1.1265,0,0,0,0,0,0,0,0,0,0,0,0,0,-1.1497,-1.1497,-1.1459,-1.1459,-1.1458,-1.1405,-1.1404,-1.1403,-1.1324,-1.1322,-1.1321,-1.1319,-1.1265,-1.1265,-1.1265,0,0,0,0,0,0,0,0,0,0,0,0,0,-1.1466,-1.1497,-1.1459,-1.1412,-1.1407,-1.1405,-1.1404,-1.1403,-1.1324,-1.1322,-1.132,-1.1318,-1.1265,-1.1265,-1.1265,-1.1305,0,0,-1.1264,-1.1264,0,0,0,0,0,0,0,0,-1.1467,-1.1464,-1.142,-1.1415,-1.141,-1.1369,-1.1397,-1.137,-1.1325,-1.1356,-1.132,-1.1317,-1.1301,-1.1298,-1.1292,-1.1303,-1.13,-1.1264,-1.1264,-1.1264,-1.1264,0,0,0,0,0,0,0,-1.147,-1.1466,-1.1438,-1.1419,-1.1413,-1.1394,-1.1387,-1.1392,-1.1341,-1.1353,-1.1347,-1.1342,-1.1298,-1.1293,-1.1291,-1.1299,-1.1264,-1.1264,-1.1264,-1.1264,-1.1342,-1.1344,0,0,0,0,0,0,-1.1479,-1.1468,-1.1439,-1.1436,-1.1434,-1.1395,-1.1387,-1.1384,-1.1341,-1.1332,-1.1343,-1.1338,-1.1294,-1.1291,-1.1288,-1.1335,-1.1264,-1.1264,-1.1264,-1.134,-1.1343,-1.1345,0,0,0,0,0,0,-1.148,-1.1477,-1.1442,-1.1451,-1.1445,-1.1397,-1.1394,-1.1384,-1.1378,-1.1333,-1.1324,-1.1347,-1.1293,-1.1289,-1.1302,-1.1332,-1.1264,-1.1263,-1.1338,-1.1341,-1.1344,-1.1426,0,0,0,0,0,0,-1.1481,-1.1478,-1.1492,-1.1451,-1.1444,-1.1456,-1.1395,-1.1385,-1.1378,-1.1371,-1.1334,-1.1326,-1.1291,-1.1303,-1.1302,-1.133,-1.1263,-1.1335,-1.1339,-1.1343,-1.1421,-1.1432,-1.1442,0,0,0,0,0,-1.1483,-1.1517,-1.1493,-1.149,-1.1461,-1.1457,-1.1453,-1.1411,-1.1381,-1.1395,-1.1367,-1.1328,-1.1328,-1.1305,-1.1303,-1.1332,-1.1333,-1.1338,-1.1343,-1.1416,-1.143,-1.1441,0,0,0,0,0,0,-1.1562,-1.1511,-1.1484,-1.1505,-1.1487,-1.1444,-1.1461,-1.1427,-1.1416,-1.141,-1.1358,-1.135,-1.1371,-1.1352,-1.1327,-1.1369,-1.1325,-1.133,-1.1381,-1.1394,-1.1404,-1.1409,-1.1263,0,0,0,0,0,-1.1582,-1.1583,-1.1538,-1.1562,-1.1554,-1.1509,-1.1506,-1.1475,-1.1453,-1.1445,-1.1417,-1.1398,-1.1394,-1.1393,-1.1386,-1.1417,-1.141,-1.1436,-1.1447,-1.1456,-1.1461,-1.1478,-1.149,-1.1362,-1.1362,-1.1362,0,0,-1.1624,-1.1596,-1.1599,-1.1577,-1.1559,-1.1562,-1.1503,-1.1508,-1.151,-1.1446,-1.1457,-1.1436,-1.1412,-1.1435,-1.1444,-1.142,-1.1495,-1.1462,-1.1469,-1.147,-1.1485,-1.1497,-1.1508,-1.1365,-1.1365,-1.1364,0,0,-1.1701,-1.1679,-1.1698,-1.1681,-1.1653,-1.1624,-1.1629,-1.1591,-1.1575,-1.1586,-1.1538,-1.154,-1.1534,-1.1519,-1.1511,-1.1584,-1.1549,-1.1584,-1.1639,-1.1657,-1.1667,-1.1675,-1.1704,-1.1715,-1.1589,-1.1589,-1.1589,0,-1.1756,-1.1758,-1.1711,-1.172,-1.1713,-1.1655,-1.1674,-1.166,-1.1632,-1.1629,-1.1603,-1.1595,-1.1574,-1.1594,-1.1612,-1.1607,-1.1612,-1.1588,-1.1669,-1.1677,-1.1685,-1.1711,-1.1722,-1.1593,-1.1593,-1.1592,-1.1592,0,-1.1828,-1.1831,-1.1849,-1.1824,-1.1819,-1.1833,-1.1789,-1.1789,-1.1759,-1.1733,-1.1746,-1.1719,-1.1707,-1.1709,-1.1679,-1.1726,-1.1712,-1.1678,-1.1632,-1.1702,-1.1727,-1.1736,-1.16,-1.1598,-1.1597,-1.1596,0,0,-1.1954,-1.1904,-1.1912,-1.1901,-1.1868,-1.1869,-1.1881,-1.1869,-1.1872,-1.1855,-1.1865,-1.1862,-1.1831,-1.1821,-1.179,-1.1805,-1.1868,-1.1769,-1.1768,-1.179,-1.192,-1.1947,-1.196,-1.1844,-1.1845,-1.1847,-1.1923,0,-1.2027,-1.2044,-1.2003,-1.2031,-1.2034,-1.1979,-1.199,-1.1972,-1.1948,-1.1947,-1.192,-1.192,-1.1878,-1.1872,-1.1885,-1.1858,-1.1894,-1.1851,-1.1854,-1.1855,-1.1864,-1.1972,-1.2,-1.2073,-1.1932,-1.1933,-1.1934,0,-1.2113,-1.2102,-1.213,-1.2097,-1.2096,-1.2107,-1.2094,-1.2094,-1.2072,-1.2054,-1.2044,-1.2007,-1.2018,-1.1974,-1.1989,-1.1961,-1.196,-1.1947,-1.1949,-1.1949,-1.19,-1.1977,-1.2095,-1.2107,-1.1948,-1.1947,-1.1946,0,-1.2205,-1.2196,-1.2213,-1.2205,-1.2166,-1.2175,-1.2159,-1.2135,-1.2132,-1.212,-1.2118,-1.2108,-1.2104,-1.2098,-1.206,-1.2031,-1.2081,-1.2032,-1.2068,-1.2069,-1.2082,-1.2082,-1.2204,-1.2079,-1.2078,-1.2078,-1.2078,0,-1.2291,-1.2311,-1.2254,-1.2264,-1.2286,-1.2239,-1.2262,-1.2241,-1.222,-1.2227,-1.2178,-1.2186,-1.2134,-1.2136,-1.2107,-1.2126,-1.2123,-1.211,-1.2102,-1.2116,-1.2118,-1.2115,-1.211,-1.2081,-1.208,-1.208,-1.2079,0,-1.2398,-1.236,-1.2375,-1.2337,-1.2328,-1.2346,-1.2314,-1.2323,-1.2296,-1.2304,-1.2304,-1.2262,-1.2262,-1.2224,-1.2215,-1.2196,-1.2228,-1.221,-1.2236,-1.2231,-1.2269,-1.2267,-1.2395,-1.2411,-1.2274,-1.2275,-1.2276,0,-1.2456,-1.2471,-1.2435,-1.2435,-1.2422,-1.2424,-1.242,-1.2375,-1.2373,-1.2351,-1.2363,-1.2359,-1.2353,-1.2356,-1.2326,-1.232,-1.2303,-1.2348,-1.2302,-1.2316,-1.2307,-1.2307,-1.2309,-1.2359,-1.2361,-1.2362,-1.2363,0,-1.2565,-1.2546,-1.2542,-1.2532,-1.2529,-1.252,-1.2507,-1.251,-1.2461,-1.2462,-1.2461,-1.2457,-1.245,-1.2447,-1.2436,-1.2421,-1.2385,-1.2378,-1.2386,-1.2401,-1.2416,-1.2411,-1.2265,-1.2375,-1.2374,-1.2373,-1.2373,-1.2372,-1.265,-1.2662,-1.2639,-1.2637,-1.2622,-1.2612,-1.2619,-1.2593,-1.2592,-1.2582,-1.2555,-1.256,-1.254,-1.2521,-1.251,-1.2513,-1.2491,-1.2502,-1.2506,-1.251,-1.2518,-1.2414,-1.2511,-1.251,-1.251,-1.251,-1.2509,0,-1.2758,-1.2741,-1.274,-1.2724,-1.2723,-1.2688,-1.2673,-1.2675,-1.2679,-1.2663,-1.2659,-1.266,-1.2657,-1.2627,-1.2622,-1.2631,-1.2615,-1.2631,-1.2631,-1.2629,-1.2537,-1.2532,-1.2645,-1.2645,-1.2645,-1.2645,-1.2645,-1.2645,-1.2814,-1.2832,-1.2811,-1.2822,-1.2804,-1.2808,-1.2803,-1.2794,-1.2781,-1.2784,-1.2782,-1.2762,-1.2741,-1.2734,-1.2731,-1.2722,-1.2723,-1.2746,-1.2733,-1.2648,-1.2635,-1.2623,-1.2617,-1.2746,-1.2747,-1.2824,-1.2825,-1.2825]},{"header":{"parameterUnit":"m.s-1","parameterCategory":1,"la1":30.2991,"la2":30.254,"lo1":-89.0895,"lo2":-89.0444,"dy":0.0017,"dx":0.0017,"nx":28,"ny":28,"refTime":"2024-06-11T21:00:00:Z","depth":0,"parameterNumber":3,"parameterNumberName":"V-component_of_WINDS"},"data":[0,0,0,0,0,0,0,0,0,0,0,0,0,0,0,0,0,0,0,0,0,0,0,0,0,0,0,0,0,0,0,0,0,0,0,0,0,0,0,0,0,0,0,0,0,0,0,0,0,0,0,0,0,0,0,0,0,0,1.0172,1.0171,0,1.0101,1.01,1.0099,1.0049,1.0049,1.0048,1.0048,0.9973,0.9971,0.9969,0,0,0,0,0,0,0,0,0,0,0,0,0,1.0262,1.0261,1.0172,1.0171,1.017,1.0101,1.01,1.0099,1.0049,1.0049,1.0048,1.0048,0.9973,0.9971,0.9969,0,0,0,0,0,0,0,0,0,0,0,0,0,1.021,1.0261,1.0172,1.0137,1.0133,1.0101,1.01,1.0098,1.0049,1.0049,1.0048,1.0048,0.9974,0.9972,0.9969,0.9965,0,0,0.9961,0.996,0,0,0,0,0,0,0,0,1.0213,1.0207,1.0143,1.014,1.0135,1.0083,1.0104,1.0054,1.0049,1.0081,1.0048,1.0047,1.001,1.0004,0.9992,0.9962,0.9958,0.9961,0.996,0.9959,0.9958,0,0,0,0,0,0,0,1.0217,1.021,1.0144,1.0142,1.0137,1.0124,1.0116,1.0094,1.0049,1.0078,1.0075,1.0067,1.0007,0.9995,0.999,0.9957,0.9961,0.9959,0.9958,0.9957,0.9916,0.9917,0,0,0,0,0,0,1.0226,1.0213,1.0146,1.0142,1.0174,1.0123,1.0114,1.01,1.005,1.0041,1.0067,1.0065,0.9999,0.9993,0.9987,0.9977,0.9959,0.9956,0.9955,0.9916,0.9916,0.9917,0,0,0,0,0,0,1.0229,1.0221,1.0149,1.0176,1.0166,1.0122,1.0107,1.0099,1.0086,1.0041,1.0033,1.0063,0.9998,0.9991,0.997,0.9974,0.9955,0.9953,0.9915,0.9916,0.9917,0.9958,0,0,0,0,0,0,1.0231,1.0222,1.0221,1.0177,1.0165,1.0135,1.0108,1.0098,1.0083,1.0078,1.0035,1.0027,0.9997,0.9974,0.9968,0.997,0.9951,0.9915,0.9916,0.9916,0.9956,0.996,0.9963,0,0,0,0,0,1.0235,1.0236,1.0221,1.0213,1.0163,1.0135,1.0128,1.0095,1.0083,1.0081,1.0051,1.0028,0.9975,0.9973,0.9965,0.9966,0.9915,0.9916,0.9916,0.9954,0.9959,0.9963,0,0,0,0,0,0,1.0281,1.0229,1.0213,1.0199,1.0172,1.0127,1.0123,1.0101,1.0076,1.0073,1.0032,1.0023,1.0006,0.9984,0.9983,0.9958,0.9942,0.9941,0.9973,0.9977,0.9981,0.9985,0.9949,0,0,0,0,0,1.029,1.0272,1.0228,1.022,1.0207,1.0168,1.0154,1.0131,1.01,1.0088,1.0058,1.0028,1.0004,0.999,0.9966,0.9953,0.9941,0.995,0.9953,0.9956,0.9956,0.9945,0.9947,0.992,0.992,0.992,0,0,1.0308,1.0277,1.0268,1.0229,1.0205,1.0186,1.0158,1.014,1.0125,1.0085,1.0064,1.004,1.0005,0.9988,0.9978,0.9969,0.9961,0.9958,0.996,0.9958,0.9946,0.9949,0.9951,0.9921,0.9921,0.992,0,0,1.033,1.0306,1.0296,1.0272,1.0236,1.0209,1.0207,1.0165,1.0147,1.0126,1.0094,1.0076,1.0037,1.0012,0.9994,1.0005,0.9982,0.9998,1.0016,1.0006,1.0008,1.001,1.0012,1.0013,0.9998,0.9998,0.9998,0,1.0356,1.0328,1.0293,1.0276,1.0259,1.0222,1.021,1.0189,1.0147,1.0135,1.0125,1.0073,1.0047,1.0022,1.0025,1.0012,1.0007,1.0003,1.0011,1.0012,1.0013,1.0014,1.0015,1.0,1.0,1.0,1.0,0,1.036,1.0341,1.0337,1.0297,1.0279,1.0266,1.0227,1.0213,1.0191,1.0165,1.0142,1.0109,1.0076,1.0069,1.0047,1.004,1.0035,1.0019,1.0001,1.0018,1.0019,1.0019,1.0003,1.0003,1.0002,1.0001,0,0,1.0409,1.035,1.0349,1.0329,1.0287,1.027,1.0254,1.0222,1.021,1.0182,1.0166,1.0132,1.0116,1.0096,1.0071,1.0063,1.007,1.0047,1.0045,1.005,1.0058,1.0069,1.0071,1.0055,1.0055,1.0055,1.006,0,1.0423,1.0393,1.036,1.034,1.0321,1.0285,1.027,1.0242,1.0217,1.0195,1.0167,1.0144,1.0125,1.0113,1.0103,1.0072,1.0071,1.0071,1.0038,1.0037,1.0046,1.0071,1.0084,1.009,1.006,1.006,1.006,0,1.0436,1.0409,1.0387,1.0344,1.0335,1.0322,1.029,1.0271,1.0237,1.0219,1.0196,1.0169,1.0148,1.0134,1.0103,1.0104,1.0088,1.0071,1.007,1.0064,1.0049,1.0064,1.0091,1.0092,1.0061,1.0061,1.0061,0,1.0471,1.043,1.0411,1.0395,1.0346,1.0337,1.0316,1.0281,1.0264,1.0235,1.0223,1.0192,1.0175,1.0151,1.0116,1.0109,1.0088,1.0071,1.0071,1.0072,1.0067,1.0067,1.009,1.006,1.006,1.006,1.006,0,1.0488,1.0476,1.0425,1.0414,1.0398,1.0361,1.0345,1.0321,1.029,1.0272,1.0239,1.0222,1.0178,1.0155,1.0128,1.0105,1.0098,1.0081,1.0074,1.0083,1.0085,1.0072,1.007,1.006,1.006,1.006,1.006,0,1.0524,1.0491,1.0467,1.0422,1.041,1.04,1.036,1.0347,1.032,1.0297,1.0289,1.0246,1.0218,1.0181,1.0141,1.0122,1.0102,1.0091,1.0113,1.0109,1.011,1.011,1.0123,1.0122,1.0095,1.0095,1.0095,0,1.0537,1.0527,1.048,1.0466,1.0445,1.0423,1.0405,1.0367,1.0349,1.0309,1.03,1.0269,1.0242,1.0197,1.0162,1.013,1.0118,1.0124,1.0113,1.0122,1.0115,1.0116,1.0113,1.0127,1.0128,1.0128,1.0128,0,1.0563,1.0546,1.0522,1.0491,1.047,1.0444,1.0417,1.0406,1.0363,1.0344,1.0315,1.0294,1.0253,1.0222,1.0185,1.0161,1.0137,1.0133,1.013,1.0139,1.0152,1.0143,1.012,1.0132,1.0132,1.0131,1.0131,1.0131,1.0586,1.0574,1.0539,1.0512,1.0488,1.0462,1.0447,1.0418,1.0393,1.0357,1.0336,1.0307,1.0271,1.022,1.0197,1.0173,1.0163,1.0161,1.016,1.0159,1.0162,1.0157,1.0166,1.0166,1.0166,1.0165,1.0165,0,1.0607,1.0583,1.0559,1.0522,1.05,1.0481,1.0448,1.0431,1.0407,1.0376,1.035,1.0315,1.0285,1.0247,1.0213,1.02,1.0188,1.0193,1.0192,1.0187,1.0173,1.0177,1.0203,1.0203,1.0203,1.0203,1.0203,1.0203,1.0616,1.0595,1.0574,1.0539,1.0514,1.0486,1.047,1.0445,1.042,1.0383,1.0358,1.0334,1.0299,1.0263,1.0233,1.0222,1.0211,1.0218,1.0204,1.0191,1.0188,1.0185,1.0189,1.0217,1.0217,1.022,1.022,1.022]}]]